EW4504 Weather Reports


time (UTC)temp
C
wind
direction
speed
KPH
gust
KPH
rain 1hr
cm
rain 24hr
cm
rain mn
cm
humidity
%
barometer
mb
20260831010052 27 0 0.0 1.6 0.00 0.00 0.00 73 1019.5
20260831005531 27 0 0.0 0.0 0.00 0.00 0.00 72 1019.5
20260831005032 27 0 0.0 0.0 0.00 0.00 0.00 71 1019.5
20260831004556 27 0 0.0 0.0 0.00 0.00 0.00 70 1019.3
20260831004032 27 0 0.0 0.0 0.00 0.00 0.00 70 1019.4
20260831003534 28 0 0.0 0.0 0.00 0.00 0.00 69 1019.4
20260831003104 28 0 0.0 0.0 0.00 0.00 0.00 68 1019.3
20260831002530 28 0 0.0 0.0 0.00 0.00 0.00 68 1019.3
20260831002030 28 0 0.0 0.0 0.00 0.00 0.00 67 1019.3
20260831001552 28 0 0.0 0.0 0.00 0.00 0.00 66 1019.2
20260831001032 29 0 0.0 0.0 0.00 0.00 0.00 66 1019.2
20260831000530 29 0 0.0 0.0 0.00 0.00 0.00 65 1019.3
20260831000047 29 0 0.0 1.6 0.00 0.00 0.00 65 1019.2
20260830235530 30 0 0.0 3.2 0.00 0.00 0.00 64 1019.3
20260830235030 30 0 0.0 3.2 0.00 0.00 0.00 64 1019.3
20260830234552 30 0 0.0 3.2 0.00 0.00 0.00 63 1019.3
20260830234031 30 0 0.0 3.2 0.00 0.00 0.00 62 1019.2
20260830233531 30 0 0.0 3.2 0.00 0.00 0.00 62 1019.3
20260830233100 30 0 0.0 4.8 0.00 0.00 0.00 62 1019.2
20260830232534 30 108 1.6 4.8 0.00 0.00 0.00 61 1019.2
20260830232031 30 0 0.0 4.8 0.00 0.00 0.00 61 1019.2
20260830231544 30 0 0.0 4.8 0.00 0.00 0.00 61 1019.1
20260830231032 31 115 0.0 6.4 0.00 0.00 0.00 61 1019.0
20260830230531 31 0 1.6 6.4 0.00 0.00 0.00 60 1019.0
20260830230042 31 0 0.0 4.8 0.00 0.00 0.00 60 1019.0
20260830225531 31 105 0.0 9.7 0.00 0.00 0.00 59 1019.0
20260830225034 31 0 3.2 14.5 0.00 0.00 0.00 59 1019.2
20260830224548 31 105 4.8 14.5 0.00 0.00 0.00 58 1019.2
20260830224028 31 147 3.2 11.3 0.00 0.00 0.00 58 1019.0
20260830223531 31 111 4.8 14.5 0.00 0.00 0.00 58 1019.1
20260830223107 31 55 8.0 14.5 0.00 0.00 0.00 59 1019.0
20260830222532 31 114 4.8 14.5 0.00 0.00 0.00 58 1018.9
20260830222030 31 0 3.2 12.9 0.00 0.00 0.00 59 1019.1
20260830221549 31 123 1.6 6.4 0.00 0.00 0.00 58 1019.0
20260830221029 31 134 1.6 8.0 0.00 0.00 0.00 58 1018.9
20260830220531 31 134 0.0 9.7 0.00 0.00 0.00 58 1019.0
20260830220044 31 88 4.8 11.3 0.00 0.00 0.00 58 1019.0
20260830215531 31 82 1.6 11.3 0.00 0.00 0.00 58 1019.0
20260830215031 31 67 0.0 9.7 0.00 0.00 0.00 60 1019.0
20260830214604 31 126 0.0 9.7 0.00 0.00 0.00 59 1019.1
20260830214031 31 87 3.2 11.3 0.00 0.00 0.00 58 1019.3
20260830213528 31 0 3.2 11.3 0.00 0.00 0.00 58 1019.2
20260830213045 31 23 3.2 6.4 0.00 0.00 0.00 58 1019.1
20260830212531 31 0 1.6 9.7 0.00 0.00 0.00 58 1019.2
20260830212031 31 80 1.6 12.9 0.00 0.00 0.00 57 1019.1
20260830211543 31 82 4.8 12.9 0.00 0.00 0.00 58 1019.2
20260830211032 31 71 6.4 17.7 0.00 0.00 0.00 58 1019.3
20260830210532 31 111 8.0 17.7 0.00 0.00 0.00 57 1019.2
20260830210105 31 109 3.2 9.7 0.00 0.00 0.00 58 1019.3
20260830205532 31 32 0.0 9.7 0.00 0.00 0.00 58 1019.3
20260830205031 31 117 1.6 9.7 0.00 0.00 0.00 57 1019.2
20260830204558 31 113 4.8 16.1 0.00 0.00 0.00 56 1019.4
20260830204031 31 90 4.8 16.1 0.00 0.00 0.00 57 1019.3
20260830203531 31 139 4.8 12.9 0.00 0.00 0.00 57 1019.5
20260830203043 31 113 1.6 9.7 0.00 0.00 0.00 58 1019.4
20260830202532 31 212 3.2 9.7 0.00 0.00 0.00 59 1019.5
20260830202033 31 104 3.2 11.3 0.00 0.00 0.00 60 1019.5
20260830201542 31 37 3.2 16.1 0.00 0.00 0.00 59 1019.5
20260830201034 31 101 3.2 16.1 0.00 0.00 0.00 59 1019.6
20260830200534 31 111 8.0 16.1 0.00 0.00 0.00 58 1019.6
20260830200055 31 136 4.8 12.9 0.00 0.00 0.00 59 1019.7
20260830195531 31 101 4.8 12.9 0.00 0.00 0.00 59 1019.7
20260830195031 31 140 1.6 16.1 0.00 0.00 0.00 61 1019.8
20260830194554 31 52 6.4 16.1 0.00 0.00 0.00 60 1020.0
20260830194031 31 109 3.2 17.7 0.00 0.00 0.00 61 1020.0
20260830193529 31 153 6.4 17.7 0.00 0.00 0.00 61 1020.1
20260830193047 31 0 4.8 14.5 0.00 0.00 0.00 61 1020.2
20260830192532 31 146 3.2 14.5 0.00 0.00 0.00 61 1020.3
20260830192031 31 36 4.8 14.5 0.00 0.00 0.00 61 1020.2
20260830191545 31 0 3.2 12.9 0.00 0.00 0.00 62 1020.4
20260830191030 31 91 3.2 14.5 0.00 0.00 0.00 62 1020.4
20260830190531 31 57 6.4 14.5 0.00 0.00 0.00 62 1020.5
20260830190124 31 51 1.6 9.7 0.00 0.00 0.00 63 1020.6
20260830185532 30 223 3.2 16.1 0.00 0.00 0.00 63 1020.6
20260830185031 30 164 6.4 16.1 0.00 0.00 0.00 63 1020.7
20260830184607 30 71 1.6 14.5 0.00 0.00 0.00 63 1020.8
20260830184029 30 109 8.0 17.7 0.00 0.00 0.00 62 1020.9
20260830183529 31 122 6.4 17.7 0.00 0.00 0.00 64 1020.9
20260830183057 31 117 3.2 11.3 0.00 0.00 0.00 63 1021.0
20260830182531 31 29 3.2 14.5 0.00 0.00 0.00 63 1021.2
20260830182028 31 151 4.8 14.5 0.00 0.00 0.00 62 1021.2
20260830181554 31 150 4.8 12.9 0.00 0.00 0.00 62 1021.2
20260830181033 31 96 3.2 16.1 0.00 0.00 0.00 63 1021.2
20260830180530 30 90 4.8 16.1 0.00 0.00 0.00 63 1021.3
20260830180108 30 88 6.4 16.1 0.00 0.00 0.00 64 1021.4
20260830175531 30 117 3.2 17.7 0.00 0.00 0.00 64 1021.5
20260830175033 30 213 6.4 17.7 0.00 0.00 0.00 65 1021.5
20260830174605 30 75 8.0 16.1 0.00 0.00 0.00 66 1021.5
20260830174032 30 98 4.8 12.9 0.00 0.00 0.00 68 1021.6
20260830173530 30 138 3.2 12.9 0.00 0.00 0.00 67 1021.7
20260830173100 30 121 3.2 12.9 0.00 0.00 0.00 67 1021.7
20260830172528 30 55 4.8 12.9 0.00 0.00 0.00 67 1021.8
20260830172031 30 108 4.8 14.5 0.00 0.00 0.00 68 1021.9
20260830171558 30 80 3.2 20.9 0.00 0.00 0.00 68 1021.9
20260830171030 29 119 6.4 20.9 0.00 0.00 0.00 68 1022.1
20260830170533 29 76 6.4 14.5 0.00 0.00 0.00 69 1022.1
20260830170055 29 144 1.6 16.1 0.00 0.00 0.00 70 1022.1
20260830165533 29 118 4.8 16.1 0.00 0.00 0.00 70 1022.1
20260830165030 29 10 1.6 11.3 0.00 0.00 0.00 70 1022.2
20260830164548 29 0 4.8 12.9 0.00 0.00 0.00 70 1022.3
20260830164032 29 41 3.2 14.5 0.00 0.00 0.00 71 1022.2
20260830163530 28 121 4.8 17.7 0.00 0.00 0.00 72 1022.3
20260830163048 28 82 1.6 17.7 0.00 0.00 0.00 72 1022.4
20260830162528 28 34 4.8 17.7 0.00 0.00 0.00 72 1022.6
20260830162031 28 101 3.2 17.7 0.00 0.00 0.00 73 1022.6
20260830161555 28 121 6.4 17.7 0.00 0.00 0.00 74 1022.6
20260830161029 27 163 3.2 12.9 0.00 0.00 0.00 75 1022.5
20260830160531 27 107 6.4 12.9 0.00 0.00 0.00 76 1022.6
20260830160054 27 71 6.4 12.9 0.00 0.00 0.00 74 1022.6
20260830155536 27 40 4.8 14.5 0.00 0.00 0.00 75 1022.6
20260830155028 27 109 4.8 17.7 0.00 0.00 0.00 75 1022.6
20260830154549 28 147 4.8 17.7 0.00 0.00 0.00 76 1022.7
20260830154035 27 154 4.8 14.5 0.00 0.00 0.00 77 1022.7
20260830153533 27 100 6.4 12.9 0.00 0.00 0.00 77 1022.8
20260830153047 27 108 3.2 17.7 0.00 0.00 0.00 77 1022.7
20260830152533 27 93 6.4 17.7 0.00 0.00 0.00 76 1022.8
20260830152033 27 91 4.8 12.9 0.00 0.00 0.00 77 1022.9
20260830151552 27 119 3.2 14.5 0.00 0.00 0.00 78 1023.0
20260830151031 27 140 6.4 16.1 0.00 0.00 0.00 78 1022.9
20260830150530 27 78 8.0 16.1 0.00 0.00 0.00 79 1022.9
20260830150048 27 105 4.8 16.1 0.00 0.00 0.00 80 1022.9
20260830145528 26 134 3.2 16.1 0.00 0.00 0.00 81 1022.8
20260830145029 26 129 6.4 16.1 0.00 0.00 0.00 81 1022.9
20260830144557 26 100 8.0 16.1 0.00 0.00 0.00 81 1022.8
20260830144029 26 71 4.8 17.7 0.00 0.00 0.00 81 1022.9
20260830143531 26 85 6.4 17.7 0.00 0.00 0.00 81 1022.9
20260830143105 26 146 1.6 14.5 0.00 0.00 0.00 82 1022.8
20260830142530 26 101 4.8 14.5 0.00 0.00 0.00 82 1022.7
20260830142028 26 99 1.6 14.5 0.00 0.00 0.00 82 1022.8
20260830141550 26 131 4.8 14.5 0.00 0.00 0.00 83 1022.7
20260830141031 26 105 3.2 12.9 0.00 0.00 0.00 83 1022.7
20260830140531 26 63 6.4 12.9 0.00 0.00 0.00 84 1022.8
20260830140049 25 128 3.2 11.3 0.00 0.00 0.00 85 1022.9
20260830135531 25 114 3.2 11.3 0.00 0.00 0.00 85 1022.8
20260830135031 25 36 1.6 11.3 0.00 0.00 0.00 86 1022.9
20260830134544 25 123 4.8 11.3 0.00 0.00 0.00 86 1022.9
20260830134032 25 144 3.2 9.7 0.00 0.00 0.00 87 1023.0
20260830133529 25 30 3.2 11.3 0.00 0.00 0.00 87 1022.9
20260830133055 25 59 1.6 11.3 0.00 0.00 0.00 88 1023.0
20260830132530 24 68 3.2 8.0 0.00 0.00 0.00 88 1022.9
20260830132031 24 0 1.6 9.7 0.00 0.00 0.00 89 1023.0
20260830131551 24 113 3.2 9.7 0.00 0.00 0.00 89 1023.0
20260830131030 24 100 3.2 8.0 0.00 0.00 0.00 89 1022.9
20260830130530 24 98 4.8 9.7 0.00 0.00 0.00 90 1023.0
20260830130047 23 59 3.2 9.7 0.00 0.00 0.00 91 1023.0
20260830125530 23 99 0.0 6.4 0.00 0.00 0.00 92 1022.9
20260830125030 23 47 0.0 9.7 0.00 0.00 0.00 92 1022.9
20260830124543 23 0 1.6 9.7 0.00 0.00 0.00 93 1022.8
20260830124030 23 82 0.0 6.4 0.00 0.00 0.00 93 1022.7
20260830123530 22 44 1.6 4.8 0.00 0.00 0.00 93 1022.8
20260830123052 22 90 0.0 4.8 0.00 0.00 0.00 93 1022.8
20260830122531 22 0 0.0 4.8 0.00 0.00 0.00 93 1022.8
20260830122031 22 0 0.0 3.2 0.00 0.00 0.00 94 1022.7
20260830121547 22 92 0.0 3.2 0.00 0.00 0.00 93 1022.7
20260830121030 22 0 0.0 3.2 0.00 0.00 0.00 93 1022.6
20260830120530 22 0 0.0 3.2 0.00 0.00 0.00 93 1022.5
20260830120058 22 0 0.0 0.0 0.00 0.00 0.00 93 1022.4
20260830115530 22 0 0.0 0.0 0.00 0.00 0.00 93 1022.3
20260830115031 22 0 0.0 0.0 0.00 0.00 0.00 93 1022.3
20260830114556 22 0 0.0 0.0 0.00 0.00 0.00 93 1022.2
20260830114034 22 0 0.0 0.0 0.00 0.00 0.00 93 1022.1
20260830113531 21 0 0.0 0.0 0.00 0.00 0.00 93 1022.1
20260830113048 21 0 0.0 0.0 0.00 0.00 0.00 92 1021.9
20260830112532 21 0 0.0 0.0 0.00 0.00 0.00 92 1021.8
20260830112030 22 0 0.0 0.0 0.00 0.00 0.00 92 1021.7
20260830111545 22 0 0.0 0.0 0.00 0.00 0.00 92 1021.6
20260830111031 22 0 0.0 0.0 0.00 0.00 0.00 92 1021.5
20260830110533 22 0 0.0 1.6 0.00 0.00 0.00 92 1021.4
20260830110050 22 0 0.0 1.6 0.00 0.00 0.00 92 1021.3
20260830105531 22 0 0.0 1.6 0.00 0.03 0.00 92 1021.1
20260830105029 22 0 0.0 1.6 0.00 0.03 0.00 92 1021.2
20260830104604 22 0 0.0 3.2 0.00 0.03 0.00 92 1021.1
20260830104033 22 0 0.0 4.8 0.00 0.03 0.00 92 1021.1
20260830103534 22 0 0.0 4.8 0.00 0.03 0.00 92 1021.3
20260830103048 22 92 0.0 3.2 0.00 0.03 0.00 92 1021.3
20260830102531 22 96 0.0 4.8 0.00 0.03 0.00 92 1021.3
20260830102030 22 96 0.0 4.8 0.00 0.03 0.00 92 1021.3
20260830101543 22 96 1.6 4.8 0.00 0.03 0.00 92 1021.2
20260830101034 22 0 0.0 0.0 0.00 0.03 0.00 92 1021.2
20260830100530 22 0 0.0 0.0 0.00 0.03 0.00 92 1021.2
20260830100059 22 0 0.0 0.0 0.00 0.03 0.00 92 1021.1
20260830095530 22 0 0.0 3.2 0.00 0.03 0.00 92 1021.0
20260830095030 22 0 0.0 3.2 0.00 0.03 0.00 92 1021.0
20260830094548 22 0 0.0 3.2 0.00 0.03 0.00 92 1020.9
20260830094031 22 0 0.0 1.6 0.00 0.03 0.00 92 1021.0
20260830093532 22 0 0.0 3.2 0.00 0.03 0.00 92 1021.0
20260830093045 22 0 0.0 3.2 0.00 0.03 0.00 91 1021.1
20260830092534 22 0 0.0 1.6 0.00 0.03 0.00 91 1021.0
20260830092031 22 0 0.0 1.6 0.00 0.03 0.00 91 1021.0
20260830091545 22 0 0.0 0.0 0.00 0.03 0.00 91 1021.0
20260830091031 22 0 0.0 3.2 0.00 0.03 0.00 91 1020.9
20260830090530 22 0 0.0 3.2 0.00 0.03 0.00 91 1021.0
20260830090055 22 0 0.0 0.0 0.00 0.03 0.00 91 1021.0
20260830085529 22 0 0.0 0.0 0.00 0.03 0.00 91 1021.0
20260830085032 22 0 0.0 1.6 0.00 0.03 0.00 91 1021.1
20260830084542 22 0 0.0 3.2 0.00 0.03 0.00 91 1021.0
20260830084033 22 0 0.0 3.2 0.00 0.03 0.00 91 1021.0
20260830083537 22 99 0.0 3.2 0.00 0.03 0.00 91 1021.0
20260830083103 22 0 0.0 3.2 0.00 0.03 0.00 91 1020.9
20260830082530 22 103 0.0 4.8 0.00 0.03 0.00 90 1020.9
20260830082032 22 0 0.0 4.8 0.00 0.03 0.00 90 1020.9
20260830081546 22 104 0.0 4.8 0.00 0.03 0.00 91 1020.9
20260830081033 22 0 0.0 0.0 0.00 0.03 0.00 90 1020.8
20260830080533 22 0 0.0 0.0 0.00 0.03 0.00 90 1020.7
20260830080056 22 0 0.0 0.0 0.00 0.03 0.00 90 1020.6
20260830075531 22 0 0.0 0.0 0.00 0.03 0.00 90 1020.6
20260830075030 22 0 0.0 0.0 0.00 0.03 0.00 90 1020.6
20260830074546 22 0 0.0 0.0 0.00 0.03 0.00 90 1020.6
20260830074032 22 0 0.0 0.0 0.00 0.03 0.00 89 1020.6
20260830073535 22 0 0.0 0.0 0.00 0.03 0.00 89 1020.6
20260830073101 22 0 0.0 0.0 0.00 0.03 0.00 89 1020.5
20260830072532 22 0 0.0 0.0 0.00 0.03 0.00 89 1020.5
20260830072033 22 0 0.0 0.0 0.00 0.03 0.00 88 1020.5
20260830071550 23 0 0.0 0.0 0.00 0.03 0.00 89 1020.6
20260830071034 23 0 0.0 0.0 0.00 0.03 0.00 88 1020.6
20260830070532 23 0 0.0 0.0 0.00 0.03 0.00 88 1020.8
20260830070047 23 0 0.0 0.0 0.00 0.03 0.00 88 1020.7
20260830065533 23 0 0.0 0.0 0.00 0.03 0.00 87 1020.8
20260830065032 23 0 0.0 0.0 0.00 0.03 0.00 88 1020.9
20260830064545 23 0 0.0 0.0 0.00 0.03 0.00 88 1021.0
20260830064033 23 0 0.0 0.0 0.00 0.03 0.00 87 1020.9
20260830063531 23 0 0.0 0.0 0.00 0.03 0.00 87 1020.9
20260830063109 23 0 0.0 0.0 0.00 0.03 0.00 86 1021.0
20260830062534 23 0 0.0 0.0 0.00 0.03 0.00 87 1021.0
20260830062031 23 0 0.0 0.0 0.00 0.03 0.00 87 1020.9
20260830061554 23 0 0.0 0.0 0.00 0.03 0.00 87 1021.1
20260830061031 23 0 0.0 0.0 0.00 0.03 0.00 87 1021.2
20260830060533 23 0 0.0 0.0 0.00 0.03 0.00 87 1021.2
20260830060053 23 0 0.0 0.0 0.00 0.03 0.00 87 1021.2
20260830055532 23 0 0.0 0.0 0.00 0.08 0.00 86 1021.3
20260830055031 23 0 0.0 0.0 0.00 0.08 0.00 87 1021.3
20260830054546 23 0 0.0 0.0 0.00 0.08 0.00 87 1021.4
20260830054030 23 0 0.0 0.0 0.00 0.08 0.00 86 1021.4
20260830053530 23 0 0.0 0.0 0.00 0.08 0.00 86 1021.4
20260830053046 24 0 0.0 0.0 0.00 0.08 0.00 86 1021.4
20260830052535 24 0 0.0 0.0 0.00 0.08 0.00 86 1021.5
20260830052032 24 0 0.0 0.0 0.00 0.08 0.00 86 1021.5
20260830051550 24 0 0.0 1.6 0.00 0.08 0.00 86 1021.5
20260830051030 24 0 0.0 3.2 0.00 0.08 0.00 85 1021.6
20260830050531 24 0 0.0 4.8 0.00 0.08 0.00 85 1021.6
20260830050048 24 0 0.0 4.8 0.00 0.08 0.00 85 1021.5
20260830045530 24 105 1.6 6.4 0.00 0.08 0.00 86 1021.4
20260830045031 24 102 1.6 6.4 0.00 0.08 0.00 86 1021.5
20260830044547 24 124 0.0 8.0 0.00 0.08 0.00 86 1021.4
20260830044030 24 124 1.6 8.0 0.00 0.08 0.00 86 1021.5
20260830043530 24 132 1.6 8.0 0.00 0.08 0.00 86 1021.5
20260830043053 24 111 0.0 3.2 0.00 0.08 0.00 86 1021.6
20260830042531 24 0 0.0 3.2 0.00 0.08 0.00 85 1021.7
20260830042035 24 112 0.0 3.2 0.00 0.08 0.00 85 1021.6
20260830041604 24 0 0.0 0.0 0.00 0.08 0.00 85 1021.7
20260830041031 25 0 0.0 1.6 0.00 0.08 0.00 85 1021.7
20260830040533 25 0 0.0 1.6 0.00 0.08 0.00 85 1021.6
20260830040049 25 0 0.0 3.2 0.00 0.08 0.00 85 1021.6
20260830035531 25 0 0.0 3.2 0.00 0.08 0.08 85 1021.5
20260830035033 25 0 0.0 4.8 0.00 0.08 0.08 85 1021.5
20260830034553 25 0 0.0 4.8 0.00 0.08 0.08 85 1021.5
20260830034031 25 111 0.0 4.8 0.00 0.08 0.08 85 1021.5
20260830033540 25 111 1.6 6.4 0.00 0.08 0.08 85 1021.6
20260830033107 25 100 1.6 6.4 0.00 0.08 0.08 85 1021.7
20260830032530 25 101 1.6 6.4 0.00 0.08 0.08 85 1021.7
20260830032030 25 115 1.6 6.4 0.00 0.08 0.08 85 1021.6
20260830031551 25 98 3.2 8.0 0.00 0.08 0.08 85 1021.6
20260830031034 25 126 1.6 8.0 0.00 0.08 0.08 85 1021.5
20260830030531 24 127 1.6 4.8 0.00 0.08 0.08 85 1021.4
20260830030048 24 127 0.0 3.2 0.00 0.08 0.08 85 1021.3
20260830025531 24 0 0.0 3.2 0.00 0.08 0.08 84 1021.2
20260830025030 24 0 0.0 3.2 0.00 0.08 0.08 85 1021.1
20260830024545 24 0 0.0 3.2 0.00 0.08 0.08 85 1021.1
20260830024032 24 0 0.0 1.6 0.00 0.08 0.08 85 1021.1
20260830023535 24 0 0.0 1.6 0.00 0.08 0.08 84 1021.0
20260830023051 24 0 0.0 0.0 0.00 0.08 0.08 84 1020.9
20260830022530 25 0 0.0 0.0 0.00 0.08 0.08 83 1021.0
20260830022031 25 0 0.0 0.0 0.00 0.08 0.08 83 1020.8
20260830021557 25 0 0.0 0.0 0.00 0.08 0.08 83 1020.7
20260830021030 25 0 0.0 0.0 0.00 0.08 0.08 83 1020.7
20260830020532 25 0 0.0 0.0 0.00 0.08 0.08 83 1020.7
20260830020049 25 0 0.0 0.0 0.00 0.08 0.08 83 1020.6
20260830015531 25 0 0.0 0.0 0.00 0.08 0.08 83 1020.7
20260830015030 25 0 0.0 0.0 0.00 0.08 0.08 83 1020.5
20260830014558 25 0 0.0 0.0 0.00 0.08 0.08 83 1020.3
20260830014033 25 0 0.0 0.0 0.00 0.08 0.08 83 1020.2
20260830013534 25 0 0.0 0.0 0.00 0.08 0.08 83 1020.1
20260830013106 25 0 0.0 0.0 0.00 0.08 0.08 83 1019.9
20260830012532 25 0 0.0 0.0 0.00 0.08 0.08 82 1019.9
20260830012032 25 0 0.0 4.8 0.00 0.08 0.08 82 1019.8
20260830011600 25 0 1.6 4.8 0.00 0.08 0.08 81 1019.6
20260830011031 25 0 0.0 0.0 0.00 0.08 0.08 81 1019.6
20260830010531 25 0 0.0 0.0 0.00 0.08 0.08 81 1019.6